Tracking 19283 objects as of 17-Nov-2018
HD Live streaming from Space Station
objects crossing your sky now

RADUGA 1

Track RADUGA 1 now!
RADUGA 1 is classified as:


NORAD ID: 8513
Int'l Code: 1975-123A
Perigee: 35,770.6 km
Apogee: 35,806.7 km
Inclination: 9.5 °
Period: 1,435.8 minutes
Semi major axis: 42159 km
RCS: 2.5118 m2 (large)
Launch date: December 22, 1975
Source: Commonwealth of Independent States (former USSR) (CIS)
Launch site: TYURATAM MISSILE AND SPACE COMPLEX (TTMTR)
aabbcc
Your satellite tracking list
Your tracking list is empty




NASA's NSSDC Master Catalog

Two Line Element Set (TLE):
1  8513U 75123A   18320.54008108 -.00000032 +00000-0 +00000-0 0  9991
2  8513 009.5300 305.8717 0004283 223.5581 147.9239 01.00289887167046
Source of the keplerian elements: AFSPC